Location: Bremen
(53.0793°N, 8.8017°E)
Time: 21:44:16
(UTC+01:00)

S-56A Canister/Altair - Pass Details

Date: 30 November 2021
Orbit: 634 x 2499 km, 38.9° (Epoch: 26 January)

Event Time Altitude Azimuth Distance (km) Brightness Sun altitude
Rises 04:26:32 0° 248° (WSW) 3,695 - -33.1°
Reaches altitude 10° 04:30:23 10° 229° (SW) 2,453 - -32.5°
Maximum altitude 04:33:44 16° 191° (S) 1,841 - -32.0°
Exits shadow 04:36:20 11° 156° (SSE) 2,030 9.9 -31.6°
Drops below altitude 10° 04:36:42 10° 152° (SSE) 2,104 10.0 -31.6°
Sets 04:39:38 0° 130° (SE) 2,934 11.1 -31.2°
